Regional Weather Roundup
Issued by NWS

Home | Current Version | Previous Version | Text Only | Print | Product List | Glossary On
Versions: 1 2 3 4 5 6 7 8 9 10 11 12 13 14 15 16 17 18 19 20 21 22 23 24 25 26 27 28 29 30 31 32 33 34 35 36 37 38 39 40 41 42 43 44 45 46 47 48 49 50
000
ASUS43 KMPX 192301
RWRMN
WEATHER ROUNDUP FOR MINNESOTA
NATIONAL WEATHER SERVICE TWIN CITIES/CHANHASSEN MN
500 PM CST THU JAN 19 2017


NOTE: "FAIR" INDICATES FEW OR NO CLOUDS BELOW 12,000 FEET WITH NO
SIGNIFICANT WEATHER AND/OR OBSTRUCTIONS TO VISIBILITY. N/A MEANS
CURRENT SKY AND/OR WEATHER CONDITIONS ARE NOT AVAILABLE.

MNZ060>063-068>070-200000-
   Twin Cities Metro

CITY           SKY/WX    TMP DP  RH WIND       PRES   REMARKS
TWIN CITIES    CLOUDY    37  31  78 SE7       29.75S
ST PAUL        CLOUDY    36  33  89 SE9       29.77S
CRYSTAL        CLOUDY    37  30  75 SE7       29.74R
BLAINE         MOCLDY    37  34  87 SE5       29.75R
LAKEVILLE        N/A     34  34 100 E5        29.75S WCI  30
EDEN PRAIRIE   CLOUDY    37  31  78 E6        29.73S
SOUTH ST PAUL  CLOUDY    37  32  85 SE3       29.76S
LAKE ELMO      CLOUDY    36  32  87 SE6       29.77S
$$
MNZ001>005-007-008-013>017-022>024-027-028-200000-
   Northwest Minnesota

CITY           SKY/WX    TMP DP  RH WIND       PRES   REMARKS
BEMIDJI        CLEAR     40  36  83 S7        29.63R
HALLOCK        FOG       30  28  93 S20       29.55R VSB 1   WCI  18
ROSEAU         CLEAR     36  32  87 S8        29.57S
WARROAD        CLEAR     37  34  87 S5        29.58S
THIEF RVR FALL CLEAR     35  33  92 S9        29.59R WCI  28
CROOKSTON      CLEAR     32  30  93 S10       29.59S FOG     WCI  24
FOSSTON        CLEAR     37  32  81 S6        29.60R
DETROIT LAKES  CLEAR     41  36  81 SE9       29.63S
MOORHEAD       CLEAR     36  34  93 SE17      29.60S
PARK RAPIDS    PTCLDY    39  32  76 SE10      29.64R
MAHNOMEN       FAIR      40  36  85 S12       29.59S
$$
MNZ006-009>011-018-025>026-200000-
   North Central Minnesota

CITY           SKY/WX    TMP DP  RH WIND       PRES   REMARKS
BAUDETTE       CLEAR     36  30  79 S7        29.59S
FLAG ISLAND    CLOUDY    30  28  93 SE15      29.57S WCI  19
INTL FALLS     CLEAR     37  32  82 S5        29.63S
WASKISH        CLEAR     39  36  87 SE5       29.62S
BIG FORK       CLEAR     39  36  87 S5        29.66R FOG
LONGVILLE      CLEAR     43  36  75 SE8       29.67R
GRAND RAPIDS   CLEAR     40  35  83 SE7       29.70R
CRANE LAKE     CLEAR     34  32  93 CALM      29.69R
ORR            MOCLDY    36  34  93 CALM      29.65S FOG
COOK           MOCLDY    36  36 100 S5        29.69S FOG
WALKER         FAIR      41  36  80 SE6       29.65R
$$
MNZ012-019>021-037-200000-
   Northeast Minnesota

CITY           SKY/WX    TMP DP  RH WIND       PRES   REMARKS
DULUTH         CLEAR     42  34  73 S6        29.72R
ELY            CLEAR     39  37  93 CALM      29.69S
HIBBING        FOG       32  32 100 CALM      29.70S VSB 3/4
EVELETH          N/A     36  35  96 CALM      29.71S FOG
DULUTH HARBOR  CLEAR     34  32  93 CALM      29.76R FOG
TWO HARBORS    CLEAR     39  34  81 CALM      29.72R
SILVER BAY     CLOUDY    36  34  93 CALM      29.72R
G MARAIS ARPRT FOG       30  28  93 SW3       29.72S VSB<1/4
$$
MNZ029>031-032-039>041-046>048-054>057-064-200000-
   West Central Minnesota

CITY           SKY/WX    TMP DP  RH WIND       PRES   REMARKS
FERGUS FALLS   CLEAR     36  36 100 S20       29.66S
WHEATON        LGT RAIN  41  41 100 SE20      29.64R VSB<1/4
MORRIS         FOG       36  34  93 SE13      29.65R VSB<1/4
ALEXANDRIA     FOG       34  34 100 S12       29.68R VSB 1/4 WCI  25
ELBOW LAKE     CLOUDY    34  34  98 E16       29.65R FOG     WCI  24
WADENA         CLEAR     37  34  87 SE7       29.65S
GLENWOOD       FOG       34  34 100 SE9       29.68F VSB<1/4 WCI  26
APPLETON       FOG       37  36  93 SE7       29.66S VSB 1/2
BENSON         CLOUDY    37  34  87 S7          N/A
ORTONVILLE     CLOUDY    36  32  87 SE10      29.64S FOG
MADISON        CLOUDY    39  39 100 S12       29.66S FOG
WILLMAR        FOG       36  36 100 SE9       29.70S VSB 1
$$
MNZ033>034-036-042>043-049>051-058-059-200000-
   Central Minnesota

CITY           SKY/WX    TMP DP  RH WIND       PRES   REMARKS
ST CLOUD       PTCLDY    37  33  85 SE8       29.72R
SAUK CENTRE    FOG       33  33 100 SE9       29.70S VSB 1/4 WCI  25
PAYNESVILLE    CLOUDY    35  35 100 SE5       29.71S FOG     WCI  30
AITKIN         CLEAR     43  34  70 S5        29.69S
PINE RIVER     PTCLDY    41  36  81 S10       29.72R
BRAINERD       CLEAR     39  35  86 S9        29.70S FOG
STAPLES        PTCLDY    39  34  81 SE6       29.67S
LONG PRAIRIE   SNOW      32  32 100 SE9       29.70R VSB<1/4 WCI  24
LITTLE FALLS   CLOUDY    34  32  93 SE8       29.73R FOG     WCI  27
LITCHFIELD     CLEAR     37  36  93 SE7       29.71S
BUFFALO        CLOUDY    38  32  79 SE3       29.74R
MAPLE LAKE     CLOUDY    38  35  86 SE6       29.73S
HUTCHINSON     CLOUDY    36  34  94 SE6       29.72S
$$
MNZ037-044-045-052-053-200000-
   East Central Minnesota

CITY           SKY/WX    TMP DP  RH WIND       PRES   REMARKS
PRINCETON      CLOUDY    43  34  70 SE6       29.74R
MORA           CLEAR     37  32  81 S3        29.75R
CAMBRIDGE      MOCLDY    39  30  70 SE5       29.73R
RUSH CITY      CLEAR     37  32  81 S8        29.76R
MOOSE LAKE     CLEAR     43  32  65 CALM      29.72R
HINCKLEY       FAIR      41  34  75 S8        29.74R
CLOQUET        CLEAR     45  34  65 S3        29.73R
MCGREGOR       CLEAR     41  34  75 SE7       29.72R
$$
MNZ071>073-080-081-089-090-097-098-200000-
   Southwest Minnesota

CITY           SKY/WX    TMP DP  RH WIND       PRES   REMARKS
MONTEVIDEO     FOG       37  37 100 S9        29.68S VSB 1/2
GRANITE FALLS  FOG       38  37  97 SE9       29.69S VSB 1/4
CANBY          CLOUDY    39  38  96 SW8G16    29.65S FOG
MARSHALL       FOG       39  38  96 SE10      29.67R VSB 3/4
REDWOOD FALLS  FOG       36  34  92 SE10      29.69R VSB 1/4
OLIVIA         CLOUDY    36  34  93 SE7       29.69S FOG
PIPESTONE      FOG       36  36 100 S7        29.64S VSB<1/4
WINDOM         FOG       36  36 100 SE7       29.68S VSB 1
WORTHINGTON    FOG       36  36 100 S9        29.68R VSB 1/4
JACKSON        FOG       34  34 100 SE8       29.69S VSB 1/4 WCI  27
TRACY          FOG       38  37  99 S10       29.67R VSB 1/4
SLAYTON        FOG       36  36 100 SE8       29.67R VSB<1/4
$$
MNZ065>067-074>077-082>085-091>093-200000-
   South Central Minnesota

CITY           SKY/WX    TMP DP  RH WIND       PRES   REMARKS
MANKATO        PTCLDY    36  32  85 SE7       29.73S
NEW ULM        PTCLDY    36  34  93 SE9       29.71S
ST JAMES       CLOUDY    36  36 100 E8        29.72S
FAIRMONT       CLOUDY    36  34  92 SE9       29.71S
GLENCOE        CLOUDY    36  35  96 E5        29.72S
FARIBAULT        N/A     37  34  87 SE5       29.74S
OWATONNA       CLOUDY    37  30  75 SE7       29.73S
WASECA         CLOUDY    36  34  93 SE8       29.74S
ALBERT LEA     CLOUDY    36  34  93 SE6       29.73R
$$
MNZ078>079-086>088-094>096-200000-
   Southeast Minnesota

CITY           SKY/WX    TMP DP  RH WIND       PRES   REMARKS
ROCHESTER      CLOUDY    34  32  92 SE14      29.75F WCI  25
RED WING       CLOUDY    37  32  81 E3        29.77F
STANTON        CLOUDY    38  32  78 CALM      29.74S
DODGE CENTER   MOCLDY    34  32  93 SE12      29.74S WCI  25
WINONA         CLOUDY    36  32  87 SE6       29.81S
AUSTIN         CLOUDY    36  32  87 E9        29.74S FOG
PRESTON        CLOUDY    35  32  89 SE8       29.77F WCI  28
$$
ABBREVIATIONS USED IN REMARKS
   TC - TEMPERATURES IN CELSIUS
  WCI - WIND CHILL INDEX
   HX - HEAT INDEX
  VSB - VISIBILITY
$$




USA.gov is the U.S. government's official web portal to all federal, state and local government web resources and services.